299  
ASUS42 KRAH 181810  
RWRRAH  
NORTH CAROLINA WEATHER ROUNDUP  
NATIONAL WEATHER SERVICE RALEIGH NC  
200 PM EDT SAT AUG 18 2018  
 
NOTE: "FAIR" INDICATES FEW OR NO CLOUDS BELOW 12,000 FEET WITH NO  
SIGNIFICANT WEATHER AND/OR S TO VISIBILITY
.  
 
NCZ001-053-055-056-065-067-181900-  
WESTERN NORTH CAROLINA  
 
CITY SKY/WX TMP DP RH WIND PRES REMARKS
 
ASHEVILLE HVY RAIN 74 70 87 NE6 30.05F FOG  
JEFFERSON CLOUDY 69 66 88 CALM 30.10F  
HICKORY LGT RAIN 78 72 81 SW7 30.00F  
RUTHERFORDTON PTSUNNY 81 72 74 S5 30.01F  
MOUNT AIRY PTSUNNY 78 74 85 NW5 30.03F  
BOONE CLOUDY 73 63 71 CALM 30.10F  

 
 
NCZ021-022-025-041-071-084-088-181900-  
CENTRAL NORTH CAROLINA  
 
CITY SKY/WX TMP DP RH WIND PRES REMARKS
 
CHARLOTTE PTSUNNY 86 73 65 SW15G21 30.00F  
GREENSBORO CLOUDY 81 73 76 W8 29.99F  
WINSTON-SALEM PTSUNNY 81 71 71 SW3 30.00F  
RALEIGH-DURHAM PTSUNNY 84 73 69 SW12 29.98F  
FORT BRAGG FAIR 87 73 62 SW10 29.97F  
FAYETTEVILLE FAIR 89 72 56 SW9 29.98F HX 96  
BURLINGTON CLOUDY 83 72 69 SW10 29.97F  
LAURINBURG FAIR 90 72 55 W15G23 30.00F HX 97  

 
 
NCZ011-015-027-028-043-044-047-080-103-181900-  
NORTHEASTERN NORTH CAROLINA  
 
CITY SKY/WX TMP DP RH WIND PRES REMARKS
 
ROCKY MT-WILSO PTSUNNY 86 74 67 SW12G17 29.96F  
GREENVILLE FAIR 88 73 62 W10G16 29.98F HX 96  
WASHINGTON FAIR 87 73 63 SW12G18 29.96F HX 95  
ELIZABETH CITY FAIR 90 76 63 SW15 29.92F HX 101  
MANTEO PTSUNNY 88 73 61 W15 29.95F HX 96  
CAPE HATTERAS FAIR 85 77 77 SW21G29 29.98F HX 95  

 
 
NCZ078-087-090-091-093-098-101-181900-  
SOUTHEASTERN NORTH CAROLINA  
 
CITY SKY/WX TMP DP RH WIND PRES REMARKS
 
LUMBERTON FAIR 86 72 62 SW12G22 29.99F  
GOLDSBORO FAIR 89 75 62 W16 29.95F HX 99  
KINSTON PTSUNNY 88 72 58 SW14 29.97F  
KENANSVILLE PTSUNNY 88 73 62 SW10G18 29.98F HX 96  
NEW BERN FAIR 87 75 67 W12 29.98F HX 96  
CHERRY POINT PTSUNNY 90 76 63 S12 29.99F HX 101  
BEAUFORT FAIR 85 78 80 SW21G31 30.00F HX 96  
JACKSONVILLE PTSUNNY 88 73 61 SW10 29.98F HX 95  
WILMINGTON PTSUNNY 87 72 60 SW13 30.00F  

 
 
 
 
CLICK HERE TO GO TO PREVIOUS BULLETINS.

The Nexlab NC Page Main Text Page